When you browse on this site, cookies collect data to enhance your experience and personalize the content and advertising you see.
Visit our Privacy Policy to learn more. By continuing to use the site, you agree to this use of cookies and data.
  • Em Portugal
  • Lista de países
  • Para 7 dias
  • Temperatura da água
  • Mapas de satélite
  • Mapa do tempo
  • Widgets de tempo
  • user-avatar
    Iniciar Sessão

    Previsão horária em Sennaya

    Hoje, 17 Junho, Segunda-feira

    Tempo Temperatura Precipitação Vento Pressão Humidade
    00:00 +19°C° 0 mm 2 m/s 749 mmHg 80%
    01:00 +19°C° 0 mm 2 m/s 749 mmHg 80%
    02:00 +19°C° 0 mm 2 m/s 749 mmHg 74%
    03:00 +20°C° 0 mm 1 m/s 749 mmHg 76%
    04:00 +20°C° 0 mm 1 m/s 749 mmHg 78%
    05:00 +20°C° 0 mm 1 m/s 749 mmHg 80%
    06:00 +21°C° 0 mm 1 m/s 749 mmHg 75%
    07:00 +23°C° 0 mm 2 m/s 749 mmHg 70%
    08:00 +25°C° 0 mm 2 m/s 750 mmHg 66%
    09:00 +26°C° 0 mm 2 m/s 749 mmHg 63%
    10:00 +27°C° 0 mm 2 m/s 749 mmHg 59%
    11:00 +28°C° 0 mm 2 m/s 749 mmHg 56%
    12:00 +29°C° 0.1 mm 2 m/s 749 mmHg 56%
    13:00 +29°C° 0.1 mm 2 m/s 749 mmHg 57%
    14:00 +29°C° 0.1 mm 2 m/s 749 mmHg 58%
    15:00 +29°C° 1.6 mm 2 m/s 748 mmHg 64%
    16:00 +28°C° 1.6 mm 2 m/s 748 mmHg 69%
    17:00 +28°C° 1.6 mm 2 m/s 748 mmHg 75%
    18:00 +26°C° 0.8 mm 2 m/s 748 mmHg 80%
    19:00 +25°C° 0.8 mm 3 m/s 748 mmHg 84%
    20:00 +22°C° 0.8 mm 3 m/s 749 mmHg 89%
    21:00 +21°C° 0 mm 3 m/s 749 mmHg 90%
    22:00 +20°C° 0 mm 3 m/s 749 mmHg 92%
    23:00 +19°C° 0 mm 4 m/s 749 mmHg 93%

    Amanhã, 18 Junho, Terça-feira

    Tempo Temperatura Precipitação Vento Pressão Humidade
    00:00 +18°C° 0 mm 3 m/s 749 mmHg 94%
    01:00 +17°C° 0 mm 3 m/s 749 mmHg 94%
    02:00 +16°C° 0 mm 2 m/s 749 mmHg 95%
    03:00 +16°C° 0 mm 3 m/s 749 mmHg 95%
    04:00 +16°C° 0 mm 3 m/s 749 mmHg 95%
    05:00 +16°C° 0 mm 3 m/s 749 mmHg 95%
    06:00 +18°C° 0 mm 3 m/s 750 mmHg 91%
    07:00 +19°C° 0 mm 3 m/s 750 mmHg 87%
    08:00 +21°C° 0 mm 3 m/s 750 mmHg 83%
    09:00 +22°C° 0 mm 4 m/s 750 mmHg 78%
    10:00 +23°C° 0 mm 4 m/s 750 mmHg 73%
    11:00 +25°C° 0 mm 4 m/s 750 mmHg 68%
    12:00 +25°C° 0.1 mm 4 m/s 750 mmHg 68%
    13:00 +26°C° 0.1 mm 4 m/s 750 mmHg 68%
    14:00 +26°C° 0.1 mm 4 m/s 750 mmHg 69%
    15:00 +26°C° 0.1 mm 4 m/s 750 mmHg 69%
    16:00 +25°C° 0.1 mm 4 m/s 750 mmHg 70%
    17:00 +25°C° 0.1 mm 4 m/s 750 mmHg 71%
    18:00 +23°C° 0 mm 4 m/s 750 mmHg 76%
    19:00 +22°C° 0 mm 3 m/s 750 mmHg 81%
    20:00 +21°C° 0 mm 3 m/s 750 mmHg 85%
    21:00 +20°C° 0 mm 3 m/s 750 mmHg 88%
    22:00 +19°C° 0 mm 3 m/s 750 mmHg 90%
    23:00 +18°C° 0 mm 3 m/s 751 mmHg 92%

    Depois de amanhã, 19 Junho, Quarta-feira

    Tempo Temperatura Precipitação Vento Pressão Humidade
    00:00 +17°C° 0 mm 3 m/s 751 mmHg 92%
    01:00 +17°C° 0 mm 2 m/s 751 mmHg 93%
    02:00 +16°C° 0 mm 2 m/s 750 mmHg 93%
    03:00 +16°C° 0 mm 2 m/s 751 mmHg 90%
    04:00 +16°C° 0 mm 2 m/s 751 mmHg 87%
    05:00 +16°C° 0 mm 2 m/s 751 mmHg 84%
    06:00 +18°C° 0 mm 2 m/s 751 mmHg 79%
    07:00 +20°C° 0 mm 3 m/s 751 mmHg 74%
    08:00 +21°C° 0 mm 3 m/s 751 mmHg 68%
    09:00 +24°C° 0 mm 2 m/s 751 mmHg 64%
    10:00 +25°C° 0 mm 2 m/s 751 mmHg 61%
    11:00 +27°C° 0 mm 2 m/s 751 mmHg 57%
    12:00 +27°C° 0 mm 3 m/s 751 mmHg 55%
    13:00 +27°C° 0 mm 3 m/s 751 mmHg 54%
    14:00 +28°C° 0 mm 3 m/s 751 mmHg 52%
    15:00 +27°C° 0 mm 3 m/s 751 mmHg 54%
    16:00 +27°C° 0 mm 3 m/s 750 mmHg 56%
    17:00 +27°C° 0 mm 3 m/s 750 mmHg 59%
    18:00 +25°C° 0 mm 3 m/s 750 mmHg 63%
    19:00 +23°C° 0 mm 2 m/s 750 mmHg 67%
    20:00 +21°C° 0 mm 2 m/s 750 mmHg 71%
    21:00 +20°C° 0 mm 2 m/s 750 mmHg 71%
    22:00 +19°C° 0 mm 2 m/s 751 mmHg 72%
    23:00 +18°C° 0 mm 2 m/s 751 mmHg 72%

    20 Junho, Quinta-feira

    Tempo Temperatura Precipitação Vento Pressão Humidade
    00:00 +18°C° 0 mm 2 m/s 751 mmHg 74%
    01:00 +17°C° 0 mm 2 m/s 751 mmHg 75%
    02:00 +16°C° 0 mm 2 m/s 750 mmHg 77%
    03:00 +17°C° 0 mm 2 m/s 751 mmHg 78%
    04:00 +17°C° 0 mm 2 m/s 751 mmHg 80%
    05:00 +17°C° 0 mm 2 m/s 751 mmHg 82%
    06:00 +19°C° 0 mm 2 m/s 751 mmHg 77%
    07:00 +21°C° 0 mm 2 m/s 751 mmHg 72%
    08:00 +24°C° 0 mm 3 m/s 751 mmHg 67%
    09:00 +25°C° 0 mm 3 m/s 751 mmHg 61%
    10:00 +26°C° 0 mm 3 m/s 751 mmHg 56%
    11:00 +28°C° 0 mm 3 m/s 751 mmHg 50%
    12:00 +28°C° 0 mm 3 m/s 751 mmHg 49%
    13:00 +29°C° 0 mm 3 m/s 750 mmHg 48%
    14:00 +29°C° 0 mm 3 m/s 750 mmHg 47%
    15:00 +29°C° 0 mm 3 m/s 750 mmHg 51%
    16:00 +28°C° 0 mm 3 m/s 750 mmHg 55%
    17:00 +28°C° 0 mm 3 m/s 750 mmHg 59%
    18:00 +27°C° 0 mm 3 m/s 750 mmHg 66%
    19:00 +25°C° 0 mm 3 m/s 750 mmHg 73%
    20:00 +22°C° 0 mm 3 m/s 750 mmHg 80%
    21:00 +22°C° 0 mm 3 m/s 750 mmHg 82%
    22:00 +21°C° 0 mm 3 m/s 750 mmHg 85%
    23:00 +20°C° 0 mm 3 m/s 750 mmHg 87%

    21 Junho, Sexta-feira

    Tempo Temperatura Precipitação Vento Pressão Humidade
    00:00 +19°C° 0 mm 3 m/s 750 mmHg 87%
    01:00 +19°C° 0 mm 3 m/s 750 mmHg 88%
    02:00 +18°C° 0 mm 3 m/s 750 mmHg 88%
    03:00 +18°C° 0 mm 2 m/s 751 mmHg 88%
    04:00 +18°C° 0 mm 2 m/s 751 mmHg 87%
    05:00 +19°C° 0 mm 2 m/s 751 mmHg 86%
    06:00 +20°C° 0 mm 2 m/s 751 mmHg 81%
    07:00 +22°C° 0 mm 3 m/s 751 mmHg 76%
    08:00 +25°C° 0 mm 3 m/s 751 mmHg 71%
    09:00 +26°C° 0 mm 3 m/s 751 mmHg 65%
    10:00 +27°C° 0 mm 3 m/s 751 mmHg 59%
    11:00 +28°C° 0 mm 4 m/s 751 mmHg 54%
    12:00 +29°C° 0 mm 4 m/s 751 mmHg 53%
    13:00 +29°C° 0 mm 4 m/s 751 mmHg 52%
    14:00 +29°C° 0 mm 4 m/s 750 mmHg 51%
    15:00 +29°C° 0 mm 4 m/s 750 mmHg 53%
    16:00 +29°C° 0 mm 4 m/s 750 mmHg 55%
    17:00 +29°C° 0 mm 3 m/s 749 mmHg 56%
    18:00 +27°C° 0 mm 3 m/s 749 mmHg 62%
    19:00 +26°C° 0 mm 3 m/s 750 mmHg 68%
    20:00 +24°C° 0 mm 3 m/s 750 mmHg 74%
    21:00 +22°C° 0 mm 3 m/s 750 mmHg 76%
    22:00 +21°C° 0 mm 3 m/s 750 mmHg 78%
    23:00 +21°C° 0 mm 3 m/s 750 mmHg 79%

    22 Junho, Sábado

    Tempo Temperatura Precipitação Vento Pressão Humidade
    00:00 +20°C° 0 mm 3 m/s 750 mmHg 82%
    01:00 +19°C° 0 mm 3 m/s 750 mmHg 85%
    02:00 +19°C° 0 mm 3 m/s 750 mmHg 87%
    03:00 +19°C° 0 mm 3 m/s 750 mmHg 87%
    04:00 +19°C° 0 mm 3 m/s 750 mmHg 86%
    05:00 +19°C° 0 mm 3 m/s 750 mmHg 86%
    06:00 +21°C° 0 mm 3 m/s 750 mmHg 80%
    07:00 +24°C° 0 mm 3 m/s 751 mmHg 74%
    08:00 +26°C° 0 mm 4 m/s 751 mmHg 69%
    09:00 +27°C° 0 mm 4 m/s 751 mmHg 63%
    10:00 +28°C° 0 mm 4 m/s 751 mmHg 58%
    11:00 +30°C° 0 mm 4 m/s 751 mmHg 52%
    12:00 +30°C° 0 mm 4 m/s 750 mmHg 51%
    13:00 +32°C° 0 mm 4 m/s 750 mmHg 50%
    14:00 +32°C° 0 mm 4 m/s 750 mmHg 48%
    15:00 +32°C° 0 mm 4 m/s 750 mmHg 51%
    16:00 +31°C° 0 mm 3 m/s 750 mmHg 54%
    17:00 +30°C° 0 mm 3 m/s 750 mmHg 56%
    18:00 +29°C° 0 mm 3 m/s 750 mmHg 62%
    19:00 +27°C° 0 mm 3 m/s 750 mmHg 68%
    20:00 +25°C° 0 mm 3 m/s 750 mmHg 74%
    21:00 +25°C° 0 mm 3 m/s 750 mmHg 74%
    22:00 +24°C° 0 mm 3 m/s 750 mmHg 73%
    23:00 +22°C° 0 mm 3 m/s 750 mmHg 72%
    Mostrar mais